EHI
0 0 0 0 0 0 0 0 0 0 0 0 0 0 0 0 0 0 0 0 0 0 0 0 0 0 0 0 0 1 0 0 0 0 0 0 0 0 0 0 1 2 3
0 0 0 0 0 0 0 0 0 0 0 0 0 0 0 0 0 0 0 0 0 0 0 0 0 0 0 0 0 1 1 1 0 0 0 0 0 0 0 0 0 1 2
0 0 0 0 0 0 0 0 0 0 0 0 0 0 0 0 0 0 0 0 0 0 0 0 0 0 0 0 0 1 2 2 1 0 0 0 0 0 0 0 0 1 2
0 0 0 0 0 0 0 0 0 0 0 0 0 0 0 0 0 0 0 0 0 0 0 0 0 0 0 0 0 1 2 2 1 0 0 0 0 0 0 0 0 0 1
0 0 0 0 0 0 0 0 0 0 0 0 0 0 0 0 0 0 0 0 0 0 0 0 0 0 0 0 0 0 1 1 1 1 2 1 0 0 0 0 0 0 0
0 0 0 0 0 0 0 0 0 0 0 0 0 0 0 0 0 0 0 0 0 0 0 0 0 0 0 0 0 0 0 0 1 2 3 2 1 0 0 0 0 0 0
0 0 0 0 0 0 0 0 0 0 0 0 0 0 0 0 0 0 0 0 0 0 0 0 0 0 0 0 0 0 0 0 0 1 2 2 2 1 0 0 0 0 0
0 0 0 0 0 0 0 0 0 0 0 0 0 0 0 0 0 0 0 0 0 0 0 0 0 0 0 0 0 0 0 1 1 0 1 1 2 1 1 0 0 0 0
0 0 0 0 0 0 0 0 0 0 0 0 0 0 0 0 0 0 0 0 0 0 0 0 0 0 0 0 0 0 0 1 1 0 0 0 1 1 1 1 1 0 0
0 0 0 0 0 0 0 0 0 0 0 0 0 0 0 0 0 0 0 0 0 0 0 0 0 0 0 0 0 0 0 0 0 0 0 0 0 1 1 2 2 1 0
0 0 0 0 0 0 0 0 0 0 0 0 0 0 0 0 0 0 0 0 0 0 0 0 0 0 0 0 0 0 0 0 0 0 0 0 0 0 0 1 1 1 0
0 0 0 0 0 0 0 0 0 0 0 0 0 0 0 0 0 0 0 0 0 0 0 0 0 0 0 0 0 0 0 0 0 0 0 0 0 0 0 0 0 0 0
0 0 0 0 0 0 0 0 0 0 0 0 0 0 0 0 0 0 0 0 0 0 0 0 0 0 0 0 0 0 0 0 0 0 0 0 0 0 0 0 0 0 0
0 0 0 0 0 0 0 0 0 0 0 0 0 0 0 0 0 0 0 0 0 0 0 0 0 0 0 0 0 0 0 0 0 0 0 0 0 0 0 0 0 0 0
0 0 0 0 0 0 0 0 0 0 0 0 0 0 0 0 0 0 0 0 0 0 0 0 0 0 0 0 0 0 0 0 0 0 0 0 0 0 0 0 0 0 0
0 0 0 0 0 0 0 0 0 0 0 0 0 0 0 0 0 0 0 0 0 0 0 0 0 0 0 0 0 0 0 0 0 0 0 0 0 0 0 0 0 0 0
0 0 0 0 0 0 0 0 0 0 0 0 0 0 0 0 0 0 0 0 0 0 0 0 0 0 0 0 0 0 0 0 0 0 0 0 0 0 0 0 0 0 0
0 0 0 0 0 0 0 0 0 0 0 0 0 0 0 0 0 0 0 0 0 0 0 0 0 0 0 0 0 0 0 0 0 0 0 0 0 0 0 0 0 0 0
0 0 0 0 0 0 0 0 0 0 0 0 0 0 0 0 0 0 0 0 0 0 0 0 0 0 0 0 0 0 0 0 0 0 0 0 0 0 0 0 0 0 0
0 0 0 0 0 0 0 0 0 0 0 0 0 0 0 0 0 0 0 0 0 0 0 0 0 0 0 0 0 0 0 0 0 0 0 0 0 0 0 0 0 0 0
0 0 0 0 0 0 0 0 0 0 0 0 0 0 0 0 0 0 0 0 0 0 0 0 0 0 0 0 0 0 0 0 0 0 0 0 0 0 0 0 0 0 0
0 0 0 0 0 0 0 0 0 0 0 0 0 0 0 0 0 0 0 0 0 0 0 0 0 0 0 0 0 0 0 0 0 0 0 0 0 0 0 0 0 0 0
0 0 0 0 0 0 0 0 0 0 0 0 0 0 0 0 0 0 0 0 0 0 0 0 0 0 0 0 0 0 0 0 0 0 0 0 0 0 0 0 0 0 0
0 0 0 0 0 0 0 0 0 0 0 0 0 0 0 0 0 0 0 0 0 0 0 0 0 0 0 0 0 0 0 0 0 0 0 0 0 0 0 0 0 0 0
0 0 0 0 0 0 0 0 0 0 0 0 0 0 0 0 0 0 0 0 0 0 0 0 0 0 0 0 0 0 0 0 0 0 0 0 0 0 0 0 0 0 0
0 0 0 0 0 0 0 0 0 0 0 0 0 0 0 0 0 0 0 0 0 0 0 0 0 0 0 0 0 0 0 0 0 0 0 0 0 0 0 0 0 0 0
Wind_Speed
2 2 2 2 2 1 1 2 1 2 2 2 2 2 3 3 3 3 3 6 8 9 10 11 10 10 10 10 11 11 12 12 12 12 13 13 14 13 13 12 11 10 9
1 2 2 2 2 2 1 2 2 2 2 2 3 3 3 3 3 3 3 5 7 8 9 10 10 10 10 11 11 11 11 11 12 12 12 13 14 14 14 13 12 11 11
2 2 2 2 3 2 2 2 2 2 2 2 3 3 3 4 4 4 4 3 4 6 8 10 10 11 11 11 10 10 9 10 11 12 13 13 13 14 15 15 14 13 12
2 2 2 3 3 2 2 2 2 2 2 2 3 3 3 3 5 4 4 3 3 3 6 8 10 11 12 11 11 11 10 10 11 11 12 13 13 13 15 15 15 14 13
3 2 3 3 3 2 2 2 2 2 2 3 3 3 3 4 4 5 4 4 4 4 4 6 9 11 12 12 11 11 11 11 11 11 10 11 14 14 14 15 14 15 15
4 3 3 4 3 2 2 2 3 2 3 3 4 4 4 4 4 5 5 5 5 5 5 5 5 6 10 12 13 12 12 11 12 11 11 11 11 14 15 14 15 15 15
4 4 4 4 3 3 3 3 2 3 2 1 2 3 4 4 5 5 4 5 5 5 5 5 4 4 4 9 11 13 12 12 12 12 11 11 11 12 13 15 13 15 15
5 4 4 4 4 3 3 3 2 2 2 1 1 1 3 3 3 4 4 5 5 4 5 6 5 5 4 4 7 11 13 14 13 13 12 12 12 12 12 13 14 14 15
5 5 5 4 4 3 4 4 3 4 3 2 3 2 2 3 3 3 4 4 4 4 4 4 6 6 6 4 4 8 12 13 13 14 13 13 13 13 13 12 13 14 14
5 5 5 5 5 4 4 4 4 4 4 4 3 3 4 3 3 4 3 3 4 5 5 5 5 6 6 5 6 9 12 13 14 14 14 14 14 13 13 13 13 13 14
5 5 5 5 5 4 5 5 5 5 5 5 4 3 4 4 4 4 6 4 3 4 4 5 5 5 6 6 6 8 12 13 14 14 14 14 14 14 13 13 13 13 12
4 5 5 5 5 5 6 6 6 6 6 6 5 5 4 4 4 4 6 6 6 4 5 5 6 5 5 6 8 10 13 13 14 13 13 13 13 14 14 13 13 13 12
4 5 5 5 5 6 6 6 6 7 7 8 7 6 6 6 5 5 6 6 6 5 4 5 5 5 6 5 6 10 12 13 13 12 12 11 12 12 12 12 11 11 11
6 6 6 6 7 7 7 6 6 7 7 8 8 8 6 7 6 6 6 5 6 6 5 5 3 5 5 4 7 10 8 12 12 11 11 10 10 11 11 10 10 10 11
5 6 6 7 7 7 7 7 6 7 7 7 8 8 7 6 6 6 6 6 6 7 7 5 3 4 4 4 6 5 6 10 12 11 10 10 10 10 10 9 9 9 9
6 6 7 7 7 7 7 7 6 7 7 7 6 7 8 7 6 6 6 6 6 7 8 4 4 3 4 5 7 5 6 11 11 12 11 10 10 10 9 9 9 9 8
6 7 7 7 7 7 7 7 7 7 8 8 8 8 9 8 7 6 6 6 6 6 9 7 4 4 4 5 5 4 5 5 6 10 11 11 10 10 9 9 8 8 7
6 7 7 7 7 7 7 7 8 8 9 9 9 9 9 8 9 7 6 7 6 6 7 9 6 4 5 5 4 4 5 4 4 8 10 10 9 9 9 8 8 8 7
6 6 6 7 7 8 7 8 8 9 9 9 9 9 10 9 9 7 7 7 6 6 6 6 6 4 4 3 3 4 4 3 3 5 6 7 8 8 8 7 7 7 7
6 6 6 7 7 7 8 8 8 8 8 9 9 9 9 9 10 9 8 8 7 6 6 5 5 4 4 3 3 3 3 2 2 2 3 4 5 6 7 7 7 6 6
6 6 6 7 7 7 7 8 7 8 8 8 8 8 9 10 12 10 8 7 7 6 5 5 5 5 4 4 4 3 3 2 2 1 1 1 2 2 3 5 6 6 6
6 6 6 7 7 7 12 14 11 7 7 7 8 8 8 9 11 14 15 13 11 9 8 7 6 7 7 5 3 3 3 3 2 1 1 1 1 1 1 2 5 6 6
5 6 7 7 8 10 14 14 14 8 7 7 7 7 7 7 9 7 10 12 12 14 13 9 8 8 7 5 4 4 4 3 3 2 1 1 0 1 1 2 5 6 6
5 6 7 7 7 10 14 13 13 8 6 7 7 7 6 6 6 6 6 6 6 7 8 7 7 7 6 5 5 5 4 2 1 0 2 1 0 1 1 1 4 5 6
6 6 6 6 7 9 12 12 12 5 5 6 6 6 6 6 9 10 6 5 5 5 6 8 7 7 7 7 6 3 4 4 1 0 1 2 1 1 1 1 2 4 6
6 6 6 6 7 7 10 12 12 5 5 5 5 5 7 7 8 9 6 5 6 5 3 2 2 2 3 3 4 4 5 5 3 1 1 2 2 2 1 1 1 2 3
Wind_Direction
332 331 323 318 308 303 306 307 307 309 303 303 301 293 280 265 256 256 266 268 266 263 258 248 242 240 239 236 232 226 222 220 218 214 211 205 201 199 199 202 202 201 203
293 313 315 311 299 280 269 274 273 271 271 266 278 276 269 260 255 254 262 267 273 274 265 257 250 246 244 242 238 232 226 223 222 217 214 213 208 205 204 205 205 204 206
266 277 296 298 293 277 268 274 282 266 277 273 269 269 262 256 251 249 251 254 256 269 272 266 261 254 248 245 242 236 234 232 227 222 220 217 214 211 208 207 208 207 209
262 267 282 285 288 279 265 265 268 271 273 276 270 268 264 255 251 244 240 245 246 256 266 271 266 262 257 250 245 241 236 236 232 230 226 221 217 216 214 211 210 211 213
256 254 264 274 281 278 264 269 268 252 264 279 273 265 258 251 250 247 239 240 238 243 247 264 267 264 262 258 252 246 239 237 234 233 231 229 224 220 219 216 213 215 216
255 255 261 268 267 272 269 257 261 257 251 265 278 279 266 257 244 239 237 240 238 240 243 249 251 260 261 261 258 252 245 241 236 233 234 234 233 227 222 220 221 220 219
253 252 263 267 255 254 259 253 252 259 262 253 291 295 281 254 243 238 235 233 237 238 236 239 238 239 253 259 258 257 252 247 242 236 236 237 239 237 229 224 225 226 224
260 259 253 258 253 251 259 253 236 248 260 218 223 297 309 301 258 241 235 232 233 233 239 244 233 231 237 240 254 259 258 253 249 241 239 239 242 243 238 232 230 229 229
262 257 255 255 253 243 249 251 234 231 246 240 210 205 242 266 300 263 234 237 231 231 239 240 239 233 234 237 242 252 258 256 252 245 242 240 243 245 241 239 235 234 232
263 259 252 249 250 247 249 252 245 227 231 242 241 229 229 234 258 295 278 252 249 239 235 246 247 242 231 229 239 252 253 254 252 247 244 243 243 247 246 245 240 238 236
265 260 254 250 248 247 247 247 251 238 229 230 230 234 239 244 235 248 276 278 270 247 239 239 239 241 239 232 230 244 250 251 252 252 247 244 244 247 249 250 245 241 237
268 262 257 251 251 249 246 247 245 243 235 232 232 230 231 232 225 233 255 267 271 264 252 244 237 235 237 236 239 252 250 247 251 253 250 246 247 248 249 253 250 244 242
272 266 262 254 253 252 252 249 247 246 239 234 234 236 238 243 237 238 248 262 271 276 260 247 233 231 237 229 237 253 250 246 250 252 249 245 246 249 250 255 252 245 244
266 266 263 261 258 256 257 254 254 249 245 238 241 239 242 244 239 234 236 248 269 275 262 253 241 226 228 227 238 251 249 247 249 250 246 244 246 246 247 251 251 245 244
269 267 265 265 262 258 256 253 254 252 250 243 241 241 244 246 243 241 233 224 241 263 268 260 247 222 220 228 238 239 240 243 250 251 243 240 242 242 243 244 250 244 243
267 269 269 267 265 264 260 256 259 254 250 250 242 241 246 249 245 241 233 231 233 246 262 262 257 247 232 251 250 246 243 247 249 248 240 236 237 240 240 237 244 240 234
269 265 266 267 266 265 263 258 258 258 252 254 249 243 245 246 245 245 235 231 235 237 255 268 259 249 234 237 252 246 242 232 238 243 238 236 234 234 233 231 231 224 216
272 267 266 265 265 265 262 258 259 258 254 254 253 247 248 245 241 241 238 234 236 239 247 263 269 254 247 230 236 251 254 242 234 238 236 233 229 229 226 223 217 209 206
277 272 269 267 267 266 266 262 259 259 255 253 251 250 248 242 241 240 239 236 235 241 241 249 266 261 256 237 234 255 244 243 241 226 228 224 222 221 218 216 205 201 201
283 278 273 270 269 269 267 266 263 259 258 257 252 249 251 242 239 237 238 236 233 236 237 240 254 260 252 235 220 232 248 238 243 235 230 224 215 214 207 204 196 193 190
286 283 282 283 282 278 271 274 270 265 263 265 262 254 250 252 250 244 242 233 228 232 233 235 241 250 247 227 225 222 235 260 267 230 215 236 205 202 199 185 175 171 175
291 291 289 287 287 285 288 286 285 274 268 264 266 263 257 255 257 254 254 249 237 232 231 233 240 238 242 234 232 216 213 231 254 196 162 268 197 198 197 172 162 164 168
294 292 289 288 287 288 292 290 290 285 275 269 265 265 263 257 260 252 254 256 249 246 243 237 235 239 235 224 213 217 216 222 239 210 137 284 254 202 196 152 156 164 164
291 292 293 290 289 291 297 297 298 291 281 276 270 265 261 260 254 253 250 245 241 243 245 241 235 238 234 220 210 211 186 145 97 93 143 174 346 64 46 125 149 158 154
296 294 294 295 293 292 296 298 300 286 282 282 277 267 258 255 253 259 256 250 250 250 249 241 238 237 232 220 205 175 163 155 177 249 100 134 137 83 58 44 131 135 138
296 299 300 298 294 292 294 301 303 293 290 290 287 275 264 261 259 263 251 240 246 246 227 217 222 227 211 193 215 210 182 176 172 183 177 144 151 119 82 30 53 95 119